Location: Shepherdstown, WV
(39.4326°N, 77.8042°W)
Time: 02:11:55
(UTC-04:00)

X-37B - Pass Details

Date: 01 July 2021
Orbit: 383 x 392 km, 45.0° (Epoch: 01 July)

Event Time Altitude Azimuth Distance (km) Brightness Sun altitude
Rises 21:19:20 0° 288° (WNW) 2,259 6.1 -6.8°
Reaches altitude 10° 21:21:35 10° 301° (WNW) 1,404 5.2 -7.1°
Maximum altitude 21:24:22 28° 3° (N) 757 2.5 -7.5°
Drops below altitude 10° 21:27:09 10° 65° (ENE) 1,401 3.1 -7.9°
Enters shadow 21:29:07 - 77° (ENE) 2,145 4.0 -8.2°
